1503504000.38,17652,17.81,73930.3,3.81,-12.07,-17.73,0,*76
1503504001.63,17653,17.81,73928.3,3.81,-12.07,-17.79,0,*7D
1503504002.91,17654,17.81,73930.3,3.79,-11.97,-17.79,0,*77
1503504004.19,17655,17.81,73930.8,3.79,-12.11,-17.97,0,*7B
1503504005.45,17656,17.81,73928.8,3.79,-12.83,-18.59,0,*7E
1503504006.67,17657,17.81,73930.5,3.79,-12.29,-18.25,0,*74
1503504007.89,17658,17.81,73928.5,3.77,-12.71,-18.69,0,*70
1503504009.11,17659,17.81,73928.5,3.77,-12.75,-18.99,0,*7A
1503504010.33,17660,17.81,73930.3,3.75,-12.89,-19.03,0,*73
1503504011.53,17661,17.81,73932.8,3.77,-12.89,-19.17,0,*75
1503504012.73,17662,17.81,73928.0,3.77,-12.97,-19.37,0,*7B
1503504013.92,17663,17.81,73928.0,3.77,-13.15,-19.51,0,*71
1503504015.17,17664,17.81,73928.3,3.79,-13.01,-19.51,0,*7D
1503504016.4,17665,17.81,73928.5,3.77,-13.11,-19.61,0,*70
1503504017.64,17666,17.81,73930.3,3.77,-13.37,-19.81,0,*79
1503504018.87,17667,17.81,73926.8,3.75,-13.55,-20.29,0,*76
1503504020.1,17668,17.81,73928.0,3.77,-13.97,-20.73,0,*7A
1503504021.35,17669,17.81,73928.5,3.75,-13.93,-20.79,0,*77
1503504022.6,17670,17.81,73926.3,3.75,-13.87,-20.59,0,*78
1503504023.83,17671,17.81,73926.5,3.75,-13.93,-20.59,0,*7C
1503504025.06,17672,17.81,73932.5,3.77,-13.97,-20.59,0,*79
1503504026.3,17673,17.81,73926.3,3.77,-13.87,-20.43,0,*72
1503504027.55,17674,17.81,73928.0,3.75,-13.93,-20.49,0,*78
1503504028.8,17675,17.81,73928.0,3.75,-13.93,-20.49,0,*79
1503504030.02,17676,17.81,73930.8,3.75,-13.65,-19.99,0,*74
1503504031.25,17677,17.81,73928.3,3.75,-13.73,-19.95,0,*7E
1503504032.51,17678,17.81,73928.8,3.75,-14.15,-20.49,0,*7D
1503504033.77,17679,17.81,73928.5,3.75,-14.43,-20.89,0,*73
1503504035.02,17680,17.81,73932.5,3.77,-14.55,-20.83,0,*7A
1503504036.25,17681,17.81,73924.8,3.75,-14.65,-20.89,0,*70
1503504037.5,17682,17.81,73928.0,3.77,-15.01,-21.23,0,*73
1503504038.72,17683,17.81,73926.8,3.77,-14.97,-21.17,0,*7B
1503504039.97,17684,17.81,73924.3,3.75,-15.15,-21.27,0,*76
1503504041.22,17685,17.81,73930.8,3.75,-15.49,-21.67,0,*7A
1503504042.44,17686,17.81,73928.0,3.77,-15.49,-21.67,0,*7B
1503504043.67,17687,17.81,73926.0,3.75,-15.67,-22.03,0,*75
1503504044.89,17688,17.81,73930.8,3.77,-15.71,-21.97,0,*71
1503504046.13,17689,17.81,73930.3,3.75,-15.53,-21.97,0,*72
1503504047.4,17690,17.81,73928.0,3.75,-15.43,-21.57,0,*77
1503504048.63,17691,17.81,73930.3,3.77,-15.29,-21.67,0,*7B
1503504049.83,17692,17.81,73930.3,3.73,-15.15,-21.43,0,*75
1503504051.05,17693,17.81,73928.0,3.75,-15.15,-21.43,0,*72
1503504052.27,17694,17.81,73928.3,3.75,-15.15,-21.39,0,*78
1503504053.52,17695,17.81,73932.0,3.75,-15.07,-21.27,0,*75
1503504054.79,17696,17.81,73934.5,3.75,-15.43,-21.53,0,*75
1503504056.07,17697,17.81,73928.3,3.75,-15.89,-21.83,0,*7F
1503504057.3,17698,17.81,73928.3,3.73,-16.03,-21.87,0,*73
1503504058.55,17699,17.81,73926.5,3.73,-16.17,-21.67,0,*79
1503504059.78,17700,17.81,73930.8,3.73,-15.95,-21.27,0,*75
1503504061.04,17701,17.81,73930.8,3.73,-15.89,-21.27,0,*79
1503504062.32,17702,17.81,73934.3,3.71,-15.57,-20.99,0,*7F
1503504063.55,17703,17.88,73932.0,3.73,-15.35,-20.63,0,*7D
1503504064.82,17704,17.81,73930.0,3.71,-14.79,-20.35,0,*72
1503504066.04,17705,17.81,73926.3,3.71,-14.65,-20.05,0,*7D
1503504067.28,17706,17.81,73924.0,3.65,-15.25,-20.83,0,*70
1503504068.51,17707,17.81,73926.3,3.65,-15.25,-20.53,0,*7C
1503504069.74,17708,17.81,73928.5,3.65,-15.29,-20.35,0,*7F
1503504070.99,17709,17.81,73926.3,3.67,-15.01,-19.99,0,*7A
1503504072.22,17710,17.81,73928.8,3.65,-14.55,-19.47,0,*73
1503504073.48,17711,17.81,73928.5,3.65,-14.51,-19.31,0,*77
1503504074.69,17712,17.81,73928.8,3.65,-14.23,-18.69,0,*7D
1503504075.93,17713,17.81,73928.0,3.65,-14.01,-18.73,0,*77
1503504077.16,17714,17.81,73926.3,3.63,-14.05,-19.17,0,*71
1503504078.4,17715,17.81,73926.0,3.65,-13.83,-18.73,0,*7C
1503504079.6,17716,17.81,73928.0,3.63,-14.15,-19.03,0,*77
1503504080.8,17717,17.81,73926.3,3.63,-13.69,-18.49,0,*75
1503504082.02,17718,17.81,73926.3,3.61,-13.47,-18.41,0,*7C
1503504083.26,17719,17.81,73930.8,3.61,-13.93,-19.23,0,*71
1503504084.52,17720,17.81,73928.0,3.59,-14.47,-20.19,0,*7D
1503504085.78,17721,17.81,73926.0,3.61,-15.43,-20.89,0,*7B
1503504087.02,17722,17.81,73930.8,3.57,-15.71,-20.25,0,*7A
1503504088.25,17723,17.81,73926.3,3.57,-15.75,-19.91,0,*7A
1503504089.45,17724,17.81,73930.0,3.59,-15.25,-19.75,0,*7C
1503504090.68,17725,17.81,73928.3,3.55,-14.79,-19.91,0,*73
1503504091.93,17726,17.81,73928.8,3.55,-14.51,-19.81,0,*7B
1503504093.14,17727,17.81,73928.3,3.55,-14.29,-19.75,0,*7E
1503504094.4,17728,17.81,73928.8,3.53,-14.19,-20.15,0,*78
1503504095.64,17729,17.81,73932.3,3.53,-14.15,-19.95,0,*77
1503504096.87,17730,17.81,73930.8,3.53,-13.69,-19.51,0,*7B
1503504098.13,17731,17.81,73930.5,3.53,-13.61,-20.25,0,*7B
1503504099.33,17732,17.81,73930.8,3.51,-15.49,-22.27,0,*76
1503504100.59,17733,17.81,73930.3,3.49,-16.23,-22.63,0,*71
1503504101.82,17734,17.81,73928.3,3.49,-15.75,-21.63,0,*75
1503504103.1,17735,17.81,73928.3,3.45,-15.43,-21.27,0,*7D
1503504104.36,17736,17.81,73930.8,3.49,-15.25,-20.83,0,*7D
1503504105.59,17737,17.81,73932.0,3.43,-15.11,-20.53,0,*7C
1503504106.83,17738,17.81,73934.3,3.43,-14.83,-20.39,0,*75
1503504108.08,17739,17.81,73932.5,3.43,-14.79,-20.19,0,*73
1503504109.33,17740,17.81,73928.3,3.43,-14.79,-20.19,0,*7D
1503504110.55,17741,17.81,73928.8,3.43,-14.79,-19.91,0,*76
1503504111.75,17742,17.81,73928.0,3.43,-14.69,-20.05,0,*73
1503504112.98,17743,17.81,73930.3,3.43,-14.93,-20.89,0,*73
1503504114.26,17744,17.81,73928.8,3.41,-15.21,-21.23,0,*7F
1503504115.46,17745,17.81,73932.5,3.39,-15.15,-20.69,0,*79
1503504116.74,17746,17.81,73928.8,3.41,-14.75,-19.85,0,*7A
1503504118.0,17747,17.81,73930.5,3.39,-14.47,-19.65,0,*7B
1503504119.25,17748,17.81,73930.3,3.39,-14.05,-19.85,0,*7C
1503504120.49,17749,17.81,73930.3,3.39,-13.83,-19.95,0,*75
1503504121.7,17750,17.81,73928.3,3.39,-14.19,-20.09,0,*76
1503504122.9,17751,17.81,73932.0,3.39,-14.33,-20.43,0,*71
1503504124.13,17752,17.81,73930.3,3.39,-14.33,-20.53,0,*73
1503504125.4,17753,17.81,73928.5,3.35,-14.47,-20.79,0,*75
1503504126.63,17754,17.81,73928.5,3.39,-14.43,-20.73,0,*70
1503504127.88,17755,17.81,73928.5,3.37,-14.37,-20.79,0,*76
1503504129.12,17756,17.81,73928.3,3.35,-14.23,-20.35,0,*7A
1503504130.36,17757,17.81,73934.3,3.35,-14.05,-20.43,0,*7E
1503504131.6,17758,17.81,73928.8,3.35,-14.01,-20.73,0,*76
1503504132.84,17759,17.81,73930.5,3.35,-14.01,-20.73,0,*77
1503504134.07,17760,17.81,73930.3,3.35,-14.01,-21.09,0,*71
1503504135.29,17761,17.81,73930.8,3.31,-14.11,-21.09,0,*75
1503504136.52,17762,17.81,73928.5,3.31,-14.19,-21.47,0,*74
1503504137.75,17763,17.81,73930.3,3.31,-14.19,-21.47,0,*75
1503504139.01,17764,17.81,73930.0,3.33,-14.43,-21.93,0,*76
1503504140.24,17765,17.81,73932.8,3.29,-14.29,-21.67,0,*7B
1503504141.5,17766,17.81,73928.8,3.31,-14.19,-21.87,0,*7C
1503504142.73,17767,17.81,73930.5,3.29,-14.01,-21.63,0,*77
1503504143.99,17768,17.81,73930.3,3.29,-13.33,-20.83,0,*71
1503504145.21,17769,17.81,73930.3,3.27,-12.93,-20.73,0,*7A
1503504146.43,17770,17.81,73928.3,3.27,-13.15,-21.09,0,*71
1503504147.64,17771,17.81,73936.0,3.29,-12.89,-20.63,0,*77
1503504148.87,17772,17.81,73932.3,3.27,-12.89,-20.89,0,*7E
1503504150.11,17773,17.81,73936.0,3.27,-13.01,-21.73,0,*7A
1503504151.39,17774,17.81,73934.0,3.27,-13.01,-21.83,0,*72
1503504152.64,17775,17.81,73934.5,3.27,-13.51,-22.21,0,*7D
1503504153.83,17776,17.81,73932.5,3.25,-13.65,-22.37,0,*7C
1503504155.03,17777,17.81,73932.3,3.25,-13.93,-22.93,0,*7A
1503504156.22,17778,17.81,73934.5,3.21,-14.65,-23.79,0,*7A
1503504157.49,17779,17.81,73932.0,3.19,-14.55,-23.65,0,*7E
1503504158.75,17780,17.81,73932.0,3.19,-13.97,-22.97,0,*7D
1503504159.99,17781,17.81,73934.5,3.19,-13.65,-22.73,0,*7B
1503504161.24,17782,17.81,73934.3,3.19,-13.65,-22.73,0,*78
1503504162.49,17783,17.81,73934.8,3.19,-13.65,-23.03,0,*7F
1503504163.68,17784,17.81,73934.5,3.17,-13.73,-23.59,0,*7E
1503504164.91,17785,17.81,73932.3,3.19,-14.11,-24.05,0,*7C
1503504166.17,17786,17.81,73930.0,3.19,-14.23,-24.21,0,*78
1503504167.4,17787,17.81,73932.8,3.17,-14.15,-23.99,0,*76
1503504168.65,17788,17.81,73932.8,3.17,-13.97,-23.69,0,*7B
1503504169.9,17789,17.81,73932.0,3.17,-13.79,-23.53,0,*73
1503504171.12,17790,17.81,73938.0,3.17,-13.69,-23.69,0,*73
1503504172.32,17791,17.81,73934.0,3.17,-13.69,-24.05,0,*7F
1503504173.58,17792,17.81,73934.3,3.17,-14.47,-25.03,0,*70
1503504174.82,17793,17.81,73932.8,3.17,-14.43,-24.67,0,*76
1503504176.05,17794,17.81,73934.8,3.17,-14.55,-25.13,0,*74
1503504177.29,17795,17.81,73930.8,3.17,-14.47,-25.13,0,*76
1503504178.52,17796,17.81,73936.0,3.17,-14.61,-25.55,0,*73
1503504179.72,17797,17.81,73932.5,3.17,-15.25,-26.39,0,*7A
1503504180.99,17798,17.81,73932.8,3.15,-15.21,-26.17,0,*7F
1503504182.21,17799,17.81,73932.0,3.13,-14.61,-25.29,0,*73
1503504183.49,17800,17.81,73932.5,3.15,-14.47,-24.87,0,*7B
1503504184.75,17801,17.81,73932.0,3.13,-14.47,-25.45,0,*73
1503504185.99,17802,17.81,73932.0,3.15,-15.15,-26.93,0,*78
1503504187.27,17803,17.81,73932.0,3.11,-15.39,-26.97,0,*77
1503504188.54,17804,17.81,73932.3,3.11,-16.23,-27.83,0,*7C
1503504189.79,17805,17.81,73932.0,3.11,-16.09,-27.13,0,*7C
1503504191.06,17806,17.81,73932.3,3.11,-15.85,-26.81,0,*72
1503504192.26,17807,17.81,73932.8,3.09,-15.53,-26.45,0,*79
1503504193.48,17808,17.81,73934.5,3.11,-15.11,-25.65,0,*78
1503504194.67,17809,17.81,73928.5,3.09,-14.69,-24.97,0,*72
1503504195.92,17810,17.81,73932.5,3.07,-14.75,-25.19,0,*7E
1503504197.15,17811,17.81,73934.5,3.07,-15.49,-27.29,0,*70
1503504198.4,17812,17.81,73932.5,3.07,-16.45,-28.21,0,*7B
1503504199.62,17813,17.81,73932.8,3.05,-16.93,-28.75,0,*72
1503504200.85,17814,17.81,73934.8,3.07,-16.93,-28.85,0,*78
1503504202.07,17815,17.81,73932.3,3.07,-16.93,-28.85,0,*79
1503504203.33,17816,17.81,73932.8,3.05,-17.17,-29.01,0,*78
1503504204.58,17817,17.81,73934.8,3.05,-16.65,-28.47,0,*7E
1503504205.81,17818,17.81,73934.0,3.05,-16.65,-28.69,0,*7D
1503504207.07,17819,17.81,73934.5,3.05,-17.03,-28.91,0,*7A
1503504208.3,17820,17.81,73932.5,3.05,-16.79,-28.59,0,*78
1503504209.52,17821,17.81,73934.8,3.01,-17.31,-29.01,0,*7C
1503504210.72,17822,17.81,73934.5,3.01,-17.31,-28.85,0,*72
1503504211.95,17823,17.81,73934.8,3.01,-17.35,-28.59,0,*76
1503504213.17,17824,17.81,73930.8,3.01,-17.35,-28.43,0,*7A
1503504214.4,17825,17.81,73932.3,3.01,-17.59,-28.15,0,*72
1503504215.63,17826,17.81,73932.5,2.97,-17.49,-27.77,0,*75
1503504216.88,17827,17.81,73936.3,3.05,-17.79,-28.21,0,*71
1503504218.09,17828,17.81,73936.0,3.01,-18.17,-28.85,0,*73
1503504219.31,17829,17.81,73934.5,3.05,-18.11,-28.91,0,*75
1503504220.55,17830,17.81,73934.5,3.05,-17.97,-28.15,0,*70
1503504221.77,17831,17.81,73932.8,3.01,-17.59,-27.51,0,*78
1503504223.0,17832,17.81,73932.3,3.01,-17.73,-27.39,0,*7D
1503504224.24,17833,17.81,73932.0,3.01,-17.79,-27.45,0,*7D
1503504225.47,17834,17.81,73928.8,3.01,-17.93,-27.29,0,*74
1503504226.67,17835,17.81,73934.0,3.01,-18.21,-27.51,0,*7C
1503504227.92,17836,17.81,73930.8,2.97,-18.35,-27.51,0,*74
1503504229.14,17837,17.81,73932.5,3.01,-18.49,-27.45,0,*75
1503504230.38,17838,17.81,73930.5,2.97,-19.13,-27.77,0,*7B
1503504231.61,17839,17.81,73932.8,3.01,-19.27,-27.67,0,*72
1503504232.87,17840,17.81,73934.8,2.97,-19.23,-27.51,0,*73
1503504234.1,17841,17.81,73934.8,2.95,-19.95,-28.05,0,*73
1503504235.31,17842,17.81,73934.0,2.95,-19.81,-27.55,0,*7F
1503504236.59,17843,17.81,73932.5,2.97,-20.83,-28.25,0,*7C
1503504237.85,17844,17.81,73930.5,2.97,-20.63,-27.61,0,*7A
1503504239.07,17845,17.81,73930.5,2.95,-20.09,-26.71,0,*75
1503504240.29,17846,17.81,73932.3,2.95,-20.39,-26.55,0,*73
1503504241.53,17847,17.81,73934.5,2.95,-20.35,-26.33,0,*7E
1503504242.75,17848,17.81,73934.0,2.95,-20.83,-26.49,0,*71
1503504244.0,17849,17.81,73928.8,2.93,-20.99,-26.65,0,*73
1503504245.22,17850,17.81,73932.0,2.93,-20.39,-25.87,0,*7E
1503504246.49,17851,17.81,73928.5,2.93,-20.35,-25.71,0,*7A
1503504247.75,17852,17.81,73932.8,2.93,-20.59,-25.81,0,*7C
1503504248.97,17853,17.81,73932.3,2.93,-20.39,-25.65,0,*71
1503504250.19,17854,17.81,73934.0,2.91,-20.15,-25.35,0,*7F
1503504251.43,17855,17.81,73930.8,2.91,-19.71,-25.03,0,*73
1503504252.68,17856,17.81,73932.5,2.91,-19.57,-24.41,0,*73
1503504253.93,17857,17.81,73934.3,2.93,-19.37,-24.41,0,*76
1503504255.16,17858,17.81,73928.0,2.93,-19.17,-24.05,0,*7B
1503504256.39,17859,17.81,73932.8,2.95,-19.13,-23.99,0,*7A
1503504257.63,17860,17.81,73932.0,2.93,-18.89,-23.75,0,*76
1503504258.89,17861,17.81,73934.3,2.95,-19.27,-23.99,0,*76
1503504260.11,17862,17.81,73934.0,2.95,-19.13,-23.69,0,*7D
1503504261.32,17863,17.81,73928.3,2.95,-18.99,-23.43,0,*77
1503504262.55,17864,17.81,73932.5,3.01,-18.93,-23.13,0,*73
1503504263.78,17865,17.81,73930.3,3.01,-18.83,-23.19,0,*79
1503504265.0,17866,17.81,73928.8,3.01,-19.07,-23.33,0,*7F
1503504266.24,17867,17.81,73928.0,3.05,-19.23,-23.43,0,*7B
1503504267.5,17868,17.81,73928.0,3.07,-19.17,-23.19,0,*7E
1503504268.72,17869,17.81,73930.5,3.05,-18.73,-22.73,0,*73
1503504269.95,17870,17.81,73930.5,3.07,-18.83,-22.63,0,*77
1503504271.2,17871,17.81,73928.5,3.07,-18.59,-22.41,0,*71
1503504272.4,17872,17.81,73932.3,3.09,-18.65,-22.27,0,*73
1503504273.62,17873,17.81,73930.0,3.09,-18.79,-22.21,0,*79
1503504274.84,17874,17.81,73932.8,3.11,-19.07,-22.27,0,*79
1503504276.04,17875,17.81,73932.3,3.13,-19.03,-22.07,0,*7C
1503504277.3,17876,17.81,73930.8,3.13,-19.57,-22.31,0,*7B
1503504278.51,17877,17.81,73932.0,3.13,-19.81,-22.37,0,*77
1503504279.77,17878,17.81,73930.5,3.15,-19.71,-22.17,0,*73
1503504280.98,17879,17.81,73928.5,3.13,-19.41,-21.73,0,*76
1503504282.24,17880,17.81,73932.0,3.13,-19.57,-21.83,0,*78
1503504283.49,17881,17.81,73930.8,3.15,-19.23,-21.39,0,*7D
1503504284.72,17882,17.81,73930.3,3.13,-19.37,-21.57,0,*75
1503504285.94,17883,17.81,73932.5,3.15,-19.07,-20.93,0,*78
1503504287.2,17884,17.81,73934.5,3.15,-18.79,-20.49,0,*70
1503504288.42,17885,17.81,73930.8,3.15,-18.49,-20.09,0,*76
1503504289.65,17886,17.81,73928.3,3.15,-19.13,-20.59,0,*7E
1503504290.9,17887,17.81,73930.0,3.15,-18.93,-20.09,0,*73
1503504292.16,17888,17.81,73934.5,3.15,-18.31,-19.37,0,*73
1503504293.35,17889,17.81,73928.8,3.17,-18.25,-19.03,0,*72
1503504294.59,17890,17.81,73932.8,3.19,-17.79,-18.49,0,*7D
1503504295.84,17891,17.81,73930.3,3.19,-17.45,-18.07,0,*79
1503504297.06,17892,17.81,73932.5,3.21,-17.31,-17.79,0,*74
1503504298.29,17893,17.81,73928.3,3.21,-17.11,-17.49,0,*74
1503504299.5,17894,17.81,73936.0,3.25,-17.03,-17.31,0,*7B
1503504300.75,17895,17.81,73932.3,3.27,-16.69,-16.93,0,*7C
1503504301.99,17896,17.81,73934.5,3.31,-16.23,-16.37,0,*78
1503504303.21,17897,17.81,73936.0,3.31,-15.99,-16.03,0,*7C
1503504304.47,17898,17.81,73932.3,3.33,-14.83,-15.11,0,*7B
1503504305.73,17899,17.81,73930.0,3.33,-13.83,-14.15,0,*78
1503504306.98,17900,17.81,73934.8,3.37,-13.23,-13.79,0,*7A
1503504308.23,17901,17.81,73930.0,3.37,-13.33,-13.73,0,*70
1503504309.46,17902,17.81,73932.3,3.41,-13.69,-14.61,0,*79
1503504310.67,17903,17.81,73932.0,3.43,-13.51,-14.69,0,*79
1503504311.9,17904,17.81,73934.3,3.45,-13.43,-14.65,0,*77
1503504313.18,17905,17.81,73932.0,3.49,-13.79,-14.97,0,*7E
1503504314.41,17906,17.81,73928.8,3.45,-14.23,-15.11,0,*76
1503504315.67,17907,17.81,73932.8,3.45,-14.11,-14.79,0,*79
1503504316.93,17908,17.81,73934.0,3.49,-13.47,-13.97,0,*79
1503504318.13,17909,17.81,73934.0,3.51,-13.11,-13.51,0,*78
1503504319.36,17910,17.81,73932.8,3.51,-12.65,-13.07,0,*71
1503504320.57,17911,17.81,73930.8,3.51,-12.21,-12.89,0,*77
1503504321.82,17912,17.81,73934.0,3.51,-11.89,-12.83,0,*7F
1503504323.05,17913,17.81,73932.5,3.55,-11.85,-12.93,0,*77
1503504324.28,17914,17.81,73934.5,3.53,-12.43,-13.55,0,*74
1503504325.51,17915,17.81,73930.5,3.53,-12.47,-13.55,0,*71
1503504326.73,17916,17.81,73932.8,3.55,-12.65,-13.65,0,*77
1503504327.95,17917,17.81,73932.0,3.55,-12.65,-13.69,0,*7A
1503504329.2,17918,17.81,73928.8,3.55,-11.81,-13.01,0,*72
1503504330.45,17919,17.81,73932.0,3.55,-11.97,-13.37,0,*71
1503504331.71,17920,17.81,73932.5,3.55,-11.55,-12.71,0,*76
1503504332.92,17921,17.81,73934.5,3.55,-10.97,-12.29,0,*75
1503504334.18,17922,17.81,73934.8,3.57,-10.75,-12.29,0,*78
1503504335.44,17923,17.81,73932.3,3.57,-11.01,-12.71,0,*76
1503504336.67,17924,17.81,73932.3,3.59,-11.51,-13.19,0,*75
1503504337.95,17925,17.81,73932.5,3.57,-11.67,-13.01,0,*76
1503504339.21,17926,17.81,73932.8,3.57,-11.41,-12.71,0,*77
1503504340.47,17927,17.81,73934.5,3.57,-11.41,-12.65,0,*73
1503504341.75,17928,17.81,73934.0,3.57,-11.55,-12.65,0,*79
1503504342.97,17929,17.81,73932.3,3.59,-11.37,-12.47,0,*72
1503504344.2,17930,17.81,73936.0,3.59,-11.07,-12.39,0,*70
1503504345.48,17931,17.81,73928.8,3.57,-10.75,-12.15,0,*75
1503504346.71,17932,17.81,73934.3,3.59,-11.07,-12.39,0,*72
1503504347.97,17933,17.81,73934.0,3.59,-10.67,-11.93,0,*77
1503504349.22,17934,17.81,73932.0,3.63,-10.63,-11.89,0,*76
1503504350.5,17935,17.81,73932.8,3.61,-10.63,-12.07,0,*70
1503504351.72,17936,17.81,73934.0,3.63,-10.53,-11.85,0,*7B
1503504352.97,17937,17.81,73932.3,3.61,-10.35,-11.77,0,*75
1503504354.22,17938,17.81,73932.3,3.61,-10.49,-11.85,0,*7C
1503504355.48,17939,17.81,73932.0,3.65,-10.63,-11.93,0,*76
1503504356.7,17940,17.81,73932.8,3.65,-10.49,-11.81,0,*73
1503504357.96,17941,17.81,73930.0,3.65,-10.71,-11.93,0,*7A
1503504359.22,17942,17.81,73932.3,3.65,-10.71,-11.85,0,*7E
1503504360.47,17943,17.81,73934.0,3.65,-10.63,-11.81,0,*78
1503504361.72,17944,17.81,73934.5,3.67,-10.45,-11.73,0,*74
1503504362.98,17945,17.81,73928.8,3.67,-10.35,-11.59,0,*7A
1503504364.24,17946,17.81,73928.8,3.67,-10.35,-11.67,0,*74
1503504365.49,17947,17.81,73930.8,3.71,-10.31,-11.67,0,*76
1503504366.73,17948,17.81,73934.5,3.71,-10.53,-11.77,0,*7C
1503504367.96,17949,17.81,73928.0,3.73,-10.49,-11.63,0,*71
1503504369.2,17950,17.81,73930.0,3.71,-10.53,-11.77,0,*75
1503504370.45,17951,17.81,73930.8,3.71,-10.19,-11.51,0,*7E
1503504371.68,17952,17.81,73932.8,3.73,-10.15,-11.37,0,*73
1503504372.88,17953,17.81,73930.5,3.73,-10.15,-11.45,0,*77
1503504374.1,17954,17.81,73934.8,3.73,-10.09,-11.33,0,*7C
1503504375.29,17955,17.81,73930.5,3.73,-10.05,-11.19,0,*79
1503504376.5,17956,17.81,73930.5,3.75,-9.93,-11.11,0,*43
1503504377.71,17957,17.81,73934.5,3.75,-9.97,-11.19,0,*4E
1503504378.91,17958,17.81,73928.5,3.77,-10.09,-11.41,0,*71
1503504380.13,17959,17.81,73932.3,3.77,-10.19,-11.29,0,*7F
1503504381.35,17960,17.81,73932.5,3.75,-10.05,-11.19,0,*79
1503504382.59,17961,17.81,73930.0,3.79,-10.23,-11.29,0,*73
1503504383.79,17962,17.81,73934.0,3.81,-10.27,-11.15,0,*7C
1503504385.04,17963,17.81,73934.3,3.81,-10.79,-11.55,0,*72
1503504386.27,17964,17.81,73934.3,3.79,-10.57,-11.41,0,*7B
1503504387.52,17965,17.81,73932.5,3.79,-10.71,-11.45,0,*7A
1503504388.8,17966,17.81,73932.8,3.79,-10.71,-11.29,0,*73
1503504390.05,17967,17.81,73934.0,3.79,-10.75,-11.19,0,*75
1503504391.27,17968,17.81,73930.8,3.79,-10.85,-11.15,0,*79
1503504392.5,17969,17.81,73932.0,3.81,-10.79,-10.97,0,*77
1503504393.7,17970,17.81,73932.5,3.81,-10.85,-10.97,0,*7C
1503504394.95,17971,17.81,73934.5,3.81,-10.71,-10.71,0,*7E
1503504396.23,17972,17.81,73934.8,3.79,-10.71,-10.67,0,*7D
1503504397.46,17973,17.81,73932.5,3.81,-11.01,-10.79,0,*72
1503504398.7,17974,17.81,73932.8,3.81,-10.97,-10.67,0,*74
1503504399.9,17975,17.81,73932.0,3.81,-11.11,-10.57,0,*79
1503504401.12,17976,17.81,73930.5,3.83,-11.23,-10.85,0,*76
1503504402.34,17977,17.81,73934.3,3.85,-11.51,-10.97,0,*77
1503504403.62,17978,17.81,73932.5,3.83,-11.33,-10.67,0,*75
1503504404.85,17979,17.81,73930.5,3.81,-11.29,-10.45,0,*7D
1503504406.05,17980,17.81,73932.8,3.81,-11.15,-10.05,0,*70
1503504407.31,17981,17.81,73934.0,3.83,-11.33,-10.35,0,*74
1503504408.56,17982,17.81,73932.3,3.83,-11.63,-10.53,0,*72
1503504409.75,17983,17.81,73934.0,3.81,-11.15,-9.97,0,*40
1503504410.95,17984,17.81,73932.8,3.81,-11.23,-10.05,0,*71
1503504412.19,17985,17.81,73930.0,3.81,-11.29,-10.01,0,*7E
1503504413.38,17986,17.81,73930.8,3.85,-11.19,-9.79,0,*4D
1503504414.6,17987,17.81,73930.8,3.85,-11.23,-9.83,0,*40
1503504415.82,17988,17.81,73930.3,3.83,-11.23,-9.79,0,*4C
1503504417.06,17989,17.81,73930.8,3.83,-11.63,-9.97,0,*49
1503504418.3,17990,17.81,73932.8,3.83,-11.37,-9.93,0,*44
1503504419.55,17991,17.81,73930.5,3.83,-10.97,-9.53,0,*42
1503504420.79,17992,17.81,73930.5,3.83,-10.79,-9.27,0,*42
1503504422.01,17993,17.81,73928.8,3.83,-10.97,-9.31,0,*44
1503504423.23,17994,17.81,73928.0,3.83,-10.97,-8.97,0,*4E
1503504424.44,17995,17.81,73930.8,3.83,-10.85,-8.97,0,*4C
1503504425.64,17996,17.81,73928.8,3.81,-10.89,-9.01,0,*4F
1503504426.83,17997,17.81,73930.3,3.81,-11.23,-9.19,0,*46
1503504428.08,17998,17.81,73934.0,3.79,-11.41,-9.41,0,*47
1503504429.32,17999,17.81,73932.3,3.79,-11.29,-9.23,0,*4C
1503504430.59,18000,17.81,73934.0,3.79,-11.33,-9.11,0,*40
1503504431.84,18001,17.81,73932.3,3.79,-11.29,-8.97,0,*45
1503504433.09,18002,17.81,73932.0,3.79,-11.29,-8.97,0,*46
1503504434.3,18003,17.81,73934.3,3.79,-10.89,-8.55,0,*42
1503504435.49,18004,17.81,73930.5,3.77,-11.15,-8.71,0,*49
1503504436.7,18005,17.81,73930.3,3.77,-11.07,-8.67,0,*4C
1503504437.9,18006,17.81,73930.5,3.77,-11.01,-8.45,0,*49
1503504439.11,18007,17.81,73932.0,3.77,-10.49,-7.99,0,*4B
1503504440.35,18008,17.81,73930.8,3.75,-10.63,-8.17,0,*47
1503504441.6,18009,17.81,73928.3,3.77,-10.75,-8.11,0,*45
1503504442.87,18010,17.81,73934.8,3.75,-10.41,-7.65,0,*44
1503504444.11,18011,17.88,73936.0,3.75,-10.27,-7.57,0,*44
1503504445.34,18012,17.81,73930.3,3.75,-9.83,-7.15,0,*77
1503504446.55,18013,17.81,73932.8,3.75,-9.97,-7.15,0,*73
1503504447.78,18014,17.81,73932.5,3.75,-9.93,-7.01,0,*75
1503504448.97,18015,17.81,73932.0,3.77,-10.01,-7.11,0,*44
1503504450.16,18016,17.81,73932.5,3.77,-10.05,-7.23,0,*42
1503504451.37,18017,17.81,73932.5,3.75,-9.93,-7.11,0,*77
1503504452.63,18018,17.81,73932.8,3.75,-9.53,-6.63,0,*70
1503504453.84,18019,17.81,73932.8,3.77,-9.49,-6.59,0,*71
1503504455.07,18020,17.81,73934.5,3.77,-9.15,-6.43,0,*79
1503504456.25,18021,17.81,73928.8,3.77,-9.23,-6.39,0,*70
1503504457.52,18022,17.81,73932.3,3.75,-9.45,-6.63,0,*7E
1503504458.73,18023,17.88,73936.3,3.75,-9.31,-6.55,0,*79
1503504459.94,18024,17.81,73932.5,3.75,-9.19,-6.43,0,*73
1503504461.16,18025,17.81,73932.3,3.77,-9.15,-6.39,0,*71
1503504462.35,18026,17.81,73934.0,3.77,-9.67,-6.69,0,*72
1503504463.56,18027,17.81,73928.3,3.79,-9.75,-6.73,0,*75
1503504464.8,18028,17.81,73932.0,3.75,-9.45,-6.43,0,*76
1503504466.03,18029,17.81,73934.3,3.75,-9.27,-6.23,0,*75
1503504467.28,18030,17.81,73934.8,3.75,-9.01,-5.93,0,*71
1503504468.48,18031,17.81,73932.5,3.73,-8.71,-5.55,0,*7A
1503504469.68,18032,17.81,73936.3,3.73,-8.63,-5.55,0,*7A
1503504470.9,18033,17.81,73934.0,3.73,-8.51,-5.43,0,*7D
1503504472.12,18034,17.81,73930.5,3.73,-8.71,-5.65,0,*7C
1503504473.36,18035,17.81,73934.5,3.75,-8.29,-5.27,0,*70
1503504474.58,18036,17.81,73932.0,3.75,-8.37,-5.51,0,*7D
1503504475.84,18037,17.81,73932.0,3.75,-7.91,-4.93,0,*70
1503504477.1,18038,17.81,73932.5,3.75,-7.69,-4.77,0,*72
1503504478.31,18039,17.81,73932.8,3.75,-7.53,-4.65,0,*79
1503504479.54,18040,17.81,73934.5,3.75,-7.49,-4.73,0,*7B
1503504480.78,18041,17.81,73932.8,3.77,-7.35,-4.69,0,*78
1503504482.02,18042,17.81,73932.0,3.77,-7.35,-4.73,0,*70
1503504483.21,18043,17.81,73934.0,3.77,-7.11,-4.49,0,*7E
1503504484.43,18044,17.81,73932.3,3.77,-6.93,-4.33,0,*7F
1503504485.62,18045,17.81,73934.0,3.77,-6.69,-4.21,0,*78
1503504486.81,18046,17.81,73934.5,3.77,-6.69,-4.21,0,*7B
1503504488.03,18047,17.81,73934.3,3.79,-6.59,-4.21,0,*77
1503504489.25,18048,17.81,73934.0,3.79,-6.73,-4.21,0,*70
1503504490.47,18049,17.81,73934.0,3.79,-6.51,-4.13,0,*70
1503504491.69,18050,17.81,73934.0,3.79,-6.51,-4.09,0,*73
1503504492.91,18051,17.81,73934.3,3.79,-6.51,-4.13,0,*79
1503504494.12,18052,17.81,73936.0,3.79,-6.55,-4.25,0,*7B
1503504495.34,18053,17.81,73936.0,3.79,-6.55,-4.33,0,*7D
1503504496.56,18054,17.81,73936.8,3.79,-6.51,-4.25,0,*79
1503504497.8,18055,17.81,73932.8,3.79,-6.27,-4.21,0,*7D
1503504499.01,18056,17.81,73934.5,3.81,-5.97,-4.01,0,*73
1503504500.25,18057,17.81,73932.8,3.79,-5.81,-3.79,0,*7A
1503504501.49,18058,17.81,73934.3,3.79,-5.51,-3.59,0,*7A
1503504502.72,18059,17.81,73934.3,3.81,-5.69,-3.67,0,*7A
1503504503.93,18060,17.81,73934.5,3.79,-6.05,-4.13,0,*7A